Regional Weather Roundup
Issued by NWS Wakefield, VA

Home | Current Version | Previous Version | Text Only | Print | Product List | Glossary On
Versions: 1 2 3 4 5 6 7 8 9 10 11 12 13 14 15 16 17 18 19 20 21 22 23 24 25 26 27 28 29 30 31 32 33 34 35 36 37 38 39 40 41 42 43 44 45 46 47 48 49 50
000
ASUS41 KAKQ 050614
RWRAKQ

REGIONAL WEATHER ROUNDUP
NATIONAL WEATHER SERVICE WAKEFIELD VA
200 AM EDT TUE MAY 05 2015

Note: "fair" indicates few or no clouds below 12,000 feet with no
significant weather and/or obstructions to visibility. * = Denotes
station may not report precipitation (e.g., rain,snow,etc.),
thunder or fog.

VAZ042-051-052>054-056-050700-
NORTHERN VIRGINIA

CITY           SKY/WX    TMP DP  RH WIND       PRES   REMARKS
WASH NATIONAL  PTCLDY    70  55  59 S9        30.20F
DULLES         PTCLDY    67  53  61 S9        30.20S
FORT BELVOIR   CLEAR     69  55  62 VRB3      30.20F
QUANTICO       CLEAR     68  56  65 S12       30.22F
FREDERICKSBRG* CLEAR     70  55  59 S10       30.22S
STAFFORD*      CLEAR     67  50  55 S5        30.26S
WARRENTON      CLEAR     67  56  67 SW6       30.21S
CULPEPER*      NOT AVBL
MANASSAS*      CLEAR     66  55  68 S5        30.21S
LEESBURG*      CLEAR     64  55  72 SW3       30.21S
WINCHESTER     CLEAR     68  45  42 SW3       30.21R
FRONT ROYAL*   MOCLDY    63  52  67 S6        30.21R
LURAY*         FAIR      59  54  82 S3        30.23S
$$

VAZ048-049-060>072-079>083-050700-
CENTRAL AND SOUTH CENTRAL VIRGINIA

CITY           SKY/WX    TMP DP  RH WIND       PRES   REMARKS
RICHMOND       CLEAR     66  53  63 S10       30.27S
CHESTERFIELD*  FAIR      66  46  48 S7        30.29S
PETERSBURG*    CLEAR     66  53  63 S6        30.29S
HANOVER        CLEAR     68  53  58 S10       30.28S
TAPPAHANNOCK*  CLEAR     67  49  52 S7        30.26F
QUINTON*       FAIR      66  54  65 S5        30.27S
CHARLOTTSVILLE CLEAR     63  53  70 S7        30.23S
GORDONSVILLE*  FAIR      58  54  85 CALM      30.23S
ORANGE*        CLEAR     59  54  82 CALM      30.25F
LOUISA*        CLEAR     66  54  63 S3        30.24S
BUMPASS*       FAIR      65  53  63 S3        30.25S
FARMVILLE*     CLEAR     68  53  59 SW8       30.26S
CREWE*         FAIR      65  53  64 S5        30.28S
FORT PICKETT*  NOT AVBL
CHASE CITY*    FAIR      67  57  71 CALM      30.30S
CLARKSVILLE*   FAIR      63  54  72 S8        30.29S
SOUTH HILL*    CLEAR     62  55  77 SW8       30.36S
LAWRENCEVILLE* FAIR      64  56  75 S5        30.30S
EMPORIA*       CLEAR     61  52  72 S3        30.33S
$$

VAZ088>098-050700-
SOUTHEAST VIRGINIA

CITY           SKY/WX    TMP DP  RH WIND       PRES   REMARKS
NORFOLK        CLEAR     65  49  56 SW14      30.30S
VIRGINIA BEACH CLEAR     69  50  50 SW13      30.30S
NORFOLK NAVAL  CLEAR     70  50  49 SW8       30.31S
WEST POINT*    CLEAR     69  52  54 SW8       30.29S
SALUDA*        FAIR      67  54  63 SW10G18   30.27R
NEWPORT NEWS   CLEAR     69  51  52 SW14      30.30S
LANGLEY AFB    CLEAR     67  51  55 SW14      30.28S
FORT EUSTIS    CLEAR     66  53  62 SW9G17    30.27S
WILLIAMSBURG*  CLEAR     70  55  60 SW5       30.30S
HR EXEC AP*    FAIR      64  50  59 SW9       30.32F
FRANKLIN*      CLEAR     63  51  64 SW8       30.32S
WAKEFIELD      CLEAR     66  51  58 S7        30.30S
$$

VAZ020-022-025-037-045-050700-
WEST CENTRAL AND SOUTHWEST VIRGINIA

CITY           SKY/WX    TMP DP  RH WIND       PRES   REMARKS
STAUNTON*      CLEAR     55  51  85 CALM      30.27S
WAYNESBORO*    FAIR      58  50  75 CALM      30.27R
HOT SPRINGS VA CLEAR     59  42  53 W5        30.35S
LYNCHBURG      CLEAR     60  53  77 SW6       30.29S
DANVILLE       CLEAR     65  52  62 SW7       30.30S
SOUTH BOSTON*  FAIR      65  53  64 SW7       30.29F
MARTINSVILLE   PTCLDY    56  56 100 CALM      30.33S
ROANOKE        CLEAR     64  52  64 CALM      30.29F
BLACKSBURG     CLEAR     53  49  88 CALM      30.35S
DUBLIN*        CLEAR     59  52  78 CALM      30.34S
MARION*        CLEAR     52  48  86 CALM      30.37S
HILLSVILLE*    CLEAR     61  50  66 S6        30.35F
RICHLANDS*     FAIR      63  42  46 CALM      30.34R
WISE*          FAIR      61  43  51 SW3       30.35S
ABINGDON*      CLEAR     56  49  77 CALM      30.32S
$$

MDZ021>025-VAZ099-100-050700-
SOUTHERN MARYLAND AND THE DELMARVA PENINSULA

CITY           SKY/WX    TMP DP  RH WIND       PRES   REMARKS
PATUXENT RIVER CLEAR     68  51  54 SW16      30.22S
BAY BRIDGE APT   N/A    N/A N/A N/A S7        30.20F
LEONARDTOWN    CLEAR     68  50  52 SW9G18    30.25S
DOVER          CLEAR     66  48  52 VRB7      30.18F
GEORGETOWN     CLEAR     63  51  65 SW13      30.24S
EASTON         CLEAR     67  56  67 SW8       30.26S
CAMBRIDGE      CLEAR     68  52  56 S7        30.23S
SALISBURY      CLEAR     66  53  63 SW12      30.25S
OCEAN CITY     CLEAR     64  55  72 SW12      30.25F
WALLOPS ISLAND CLEAR     65  54  67 SW12      30.27S
ACCOMACK*      CLEAR     68  45  42 SW15G21   30.28S
$$

NCZ012>017-030>032-050700-
NORTH CENTRAL AND EASTERN NORTH CAROLINA

CITY           SKY/WX    TMP DP  RH WIND       PRES   REMARKS
ROANOKE RAPIDS FAIR      61  52  72 S7        30.32S
RALEIGH        PTCLDY    63  54  72 SW7       30.34S
ELIZABETH CITY CLEAR     62  54  74 SW8       30.33S
AHOSKIE*       CLEAR     61  50  67 S3        30.33F
EDENTON*       CLEAR     62  55  79 SW3       30.34S
CURRITUCK*     CLEAR     65  52  61 SW7       30.33F
KILL DEVIL HLS CLEAR     63  52  66 SW5       30.33S
MANTEO         CLEAR     63  53  71 SW6       30.34F
CAPE HATTERAS  CLEAR     62  56  80 SW6       30.35F
TARBORO*       FAIR      63  51  66 CALM      30.34F
GOLDSBORO      CLEAR     61  50  67 CALM      30.32F
WASHINGTON     CLEAR     60  54  79 CALM      30.34F
GREENVILLE     CLEAR     61  54  77 SW3       30.34S
NEW BERN       CLEAR     54  51  90 CALM      30.35F
WILMINGTON     CLEAR     56  54  93 CALM      30.34F
$$

VAZ048-050700-
ELSEWHERE

CITY           SKY/WX    TMP DP  RH WIND       PRES   REMARKS
HARRISBURG PA  MOCLDY    65  51  60 CALM      30.17R
BALTIMORE      CLEAR     69  52  54 SW8       30.18F
ANNAPOLIS      CLEAR     64  55  72 SE3       30.19F
ANDREWS AFB    CLEAR     67  53  61 S12       30.20F
PHILADELPHIA   CLEAR     65  49  56 S8        30.19F
HENDERSON NC   CLEAR     62  52  69 S10       30.32S
GREENSBORO     CLEAR     63  53  70 SW8       30.31F
ROCKY MOUNT    CLEAR     62  52  69 S6        30.33F
$$

VAZ100-050700-
MARINE

STATION/POSITION TIME  TEMP    WIND        PRES    WAVE   SWELL
                       AIR SEA DIR/SP/G            HT/PER HT/PER
                 (UTC) (F)     (DEG/KT/KT) (MB)    (FT/S) (FT/S)
BRANDYWINE LGT   0500   63 54  210/ 15/ 16 1023.5R
CAPE MAY NJ      0500   62 61  180/  8/ 12 1023.3S
LEWES DE         0500   68 56  230/  9/ 14 1023.5S
15NM E FENWICK I 0550   57 53              1024.1F   3/ 4
OCEAN-CITY-INLET 0500   57 52  210/ 11/ 14 1024.3S
WACHAPREAGUE VA  0500   68 66  230/  7/ 11 1025.3R
THOMAS POINT MD  0600   64 58  170/ 15/ 16 1023.1F
GOOSES REEF MD   0600   64 59                N/A     1
COVE POINT MD    0500   70     230/ 17/ 19 1024.1R
SOLOMONS ISLAND  0500      61                N/A
BISHOPS HEAD MD  0500   65 65  200/ 14/ 18 1023.7R
PINEY POINT MD   0500          230/ 15/ 17   N/A
CAMBRIDGE MD     0500   67 62  190/  7/  9 1023.5R
LEWISETTA VA     0500   69 66              1023.9R
RAPPAHANNOCK LGT 0500          190/ 17/ 17 1025.8R
YORK RVR RNG VA  0500   68     220/ 18/ 21 1024.7R
YORKTOWN VA      0500   68 62  220/ 13/ 20 1025.0R
JAMESTOWN VA     0600   66 65  220/ 10/ 14 1024.8R
DOMINION TERM VA 0500   66     220/ 14/ 16 1025.9R
KIPTOPEKE VA     0500      66  220/ 12/ 14   N/A
CHES BAY BRIDGE  0506   68 58  200/ 20/ 24 1025.4R
CAPE HENRY VA    0500   68     210/ 10/ 19 1024.8R
CHESAPEAKE LGHT  0500   65     220/ 22/ 22 1026.3R
WILLOUBY STN VA  0500   67     210/ 16/ 18 1026.6R
S CRANEY ISL VA  0500          210/ 11/ 18 1026.1R
CAPE HENRY BUOY  0528      59                N/A     2/ 9   2/11
1ST LANDING BUOY 0600      58                N/A     2/ 3
CAPE CHARLES BUO 0526      58                N/A     2/ 9   2/ 9
OFFSHORE WE BUOY 0511      52                N/A     3/ 9   3/ 9
64NM E OF VA BCH 0550   62 60  220/ 14/ 16 1026.5S   3/ 9   3/ 9
DUCK PIER NC     0500   66 53  200/  9/ 11 1026.3R
44056 DUCK FRF   0511      56                N/A     2/ 9   2/11
OREGON INLET NC  0500   67 68  200/  8/  8 1027.6R
HATTERAS NC      0506   68 65  210/  5/  8 1027.4R
DIAMOND SHLS NC  0550   73 77  190/ 14/ 16 1027.6F   3/11   3/11
CAPE LOOKOUT NC  0600   67     190/  6/  6 1027.4F
$$



USA.gov is the U.S. government's official web portal to all federal, state and local government web resources and services.